Location: Newark
(39.0622°N, 106.5590°E)
Time: 15:17:08
(UTC+00:00)

Courier 1B - Pass Details

Date: 25 January 2020
Orbit: 962 x 1209 km, 28.3° (Epoch: 17 February)

Event Time Altitude Azimuth Distance (km) Brightness Sun altitude
Rises 01:53:34 0° 257° (WSW) 4,092 10.4 16.5°
Reaches altitude 10° 01:58:54 10° 228° (SW) 3,139 10.2 17.2°
Maximum altitude 02:01:19 12° 210° (SSW) 3,015 10.3 17.6°
Drops below altitude 10° 02:03:43 10° 191° (SSW) 3,131 10.7 17.9°
Sets 02:09:03 0° 161° (SSE) 4,067 11.9 18.6°
